Tracking 30918 objects as of 2-Jul-2025
HD Live streaming from Space Station
objects crossing your sky now

TITAN 34D TRANSTAGE DEB

Track TITAN 34D TRANSTAGE DEB now!


NORAD ID: 22669
Int'l Code: 1988-077E
Perigee: 402.6 km
Apogee: 38,118.7 km
Inclination: 27.3 °
Period: 680.7 minutes
Semi major axis: 25631 km
RCS: Unknown
Launch date: September 2, 1988
Source: United States (US)
Launch site: AIR FORCE EASTERN TEST RANGE (AFETR)

Note: This is SATELLITE DEBRIS
Your satellite tracking list
Your tracking list is empty




NASA's NSSDC Master Catalog

Two Line Element Set (TLE):
1 22669U 88077E   25182.46160343  .00000515  00000-0  18296-2 0  9999
2 22669  27.2715 322.6556 7357340 169.4949 225.5497  2.11562231 46682
Source of the keplerian elements: AFSPC